060131 104  0.6+  0.1-    060307 A32  0.0   0.2+    060415 H47  0.2+  0.6+  

060131 104  0.9+  0.2-    060307 A32  0.1-  0.3+    060415 H47  0.8+  0.4+  

060131 213  0.9+  0.6+    060307 A32  0.1+  0.0     060415 939  0.5+  0.1-  

060131 213  0.5+  0.3+    060308 J67  0.4-  0.0     060415 939  0.2+  0.0   

060131 213  1.1+  0.5+    060308 J67  0.2-  0.1+    060415 939  0.1-  0.0   

060201 H07  0.1-  0.1-    060309 703 (1.7-  3.0-)   060415 J97 (2.5-  0.3+) 

060201 H07  0.2-  0.1+    060309 703 (0.8-  2.2-)   060416 H47  0.8-  0.4+  

060201 H07  0.1-  0.1-    060309 703 (0.3-  2.3-)   060416 H47  1.9-  0.6-  

060201 H07  0.1+  0.7-    060309 703  0.4-  1.9-    060418 704  0.1-  0.3+  

060201 H07  0.1+  0.1-    060309 703 (0.6-  2.5-)   060418 704  0.3+  0.1+  

060201 H07  0.1-  0.0     060309 703 (0.5-  2.1-)   060418 704  0.1+  0.4+  

060201 J76  0.3+  0.1-    060309 703  0.7-  1.9-    060418 704  0.0   0.9+  

060201 J76  0.6+  0.4-    060309 703 (0.0   2.2-)   060418 704  1.3+  0.1+  

060201 J76  0.4+  0.4-    060311 349  0.2+  0.9-    060419 939  0.2-  0.1-  

060202 H07  0.0   0.1+    060311 349  0.3+  0.4-    060419 939  0.2-  0.2-  

060202 699  0.6-  0.6+    060311 349  0.1+  0.1-    060419 939  0.3-  0.0   

060202 H07  0.8-  0.0     060313 A18  0.1-  0.4-    060420 J97  1.1-  0.3-  

060202 699  0.5-  0.3+    060317 185  0.1-  0.2-    060420 939  0.6+  0.1+  

060202 699  0.4-  0.3+    060317 185  0.0   0.3-    060420 939  0.7+  0.2-  

060202 H07  0.9-  0.0     060317 185  0.1-  0.5-    060420 939  0.8+  0.6-  

060202 H07  1.4-  0.7+    060318 235  0.2+  0.4+    060424 H47  0.6+  0.2-  

060202 699  1.1-  0.7+    060319 704  0.1+  0.5-    060424 H47  1.6-  0.9+  

060202 H07  0.2-  0.3+    060319 704  0.7+  0.5-    060424 703 (0.6-  2.4-) 

060202 H07  1.6-  1.5+    060319 704  0.2+  0.1+    060424 703  1.2-  1.0-  

060203 213  0.3+  0.1-    060319 704  0.7+  0.5-    060424 703 (2.7-  0.7-) 

060203 213  0.2+  0.2-    060319 704  1.1+  0.0     060424 703  0.3-  0.1+  

060203 213  0.3+  0.1-    060319 D88  0.6+  0.5-    060424 213  0.3-  1.4+  

060204 G96 (2.2-  0.8+)   060319 D88  0.7+  0.2+    060424 213  0.2-  0.3+  

060204 G96 (2.3-  0.8+)   060319 D88  0.4+  0.4-    060424 213  0.0   0.6+  

060204 G96  1.3-  0.6+    060319 215  0.5-  0.1-    060425 048  1.5+  0.1-  

060204 G96  1.5-  0.7+    060319 215  0.3-  0.0     060425 048  1.9+  0.1-  

060204 232  0.3-  0.1-    060319 215  0.3-  0.1+    060425 048  0.7+  0.1-  

060204 232  0.0   0.3+    060320 561  0.4-  0.4+    060425 048  0.4-  0.7-  

060204 232  0.1+  0.2+    060320 561  0.3-  0.3+    060425 048  0.0   1.4-  

060205 170  0.1+  0.1-    060320 561  0.3-  0.3+    060425 J97  0.4-  0.4-  

060205 170  0.2+  0.2-    060320 561  0.3-  0.4+    060427 A32  0.3-  0.3-  

060205 H07  0.1-  0.2+    060321 H06  0.6-  0.2+    060427 A32  0.0   0.4-  

060205 H07  0.1-  0.2+    060321 H06  0.2+  0.0     060427 A32  0.0   0.5-  

060205 H07  0.2+  0.2+    060321 H06  0.0   0.4-    060429 939  0.7+  0.9-  

060205 349  0.3+  0.0     060321 H06  0.2-  0.7-    060429 939  0.2+  0.8-  

060205 349  0.5+  0.4+    060321 H06  0.1+  0.3-    060429 939  0.5-  0.9-  

060205 349  0.3+  0.3+    060321 H06  0.2+  0.6-    060429 A01  1.3+  1.2-  

060206 J76  0.8+  0.3+    060321 H06  0.1+  0.6-    060430 A01  0.2+  0.6-  

060206 J76  0.3+  0.8-    060321 H06  0.2+  0.5-    060430 A01  0.2+  0.9-  

060206 J76  0.6+  1.0-    060321 H06  0.0   0.7-    060502 J97  0.4+  0.5-  

060206 203  0.1+  0.3+    060321 H06  0.0   0.6-    060504 703  0.7-  1.3+  

060207 203  0.1+  0.1+    060321 H06  0.1-  0.2-    060504 703  0.1+  1.8+  

060207 691  0.6-  0.4+    060321 367  0.4+  0.1+    060504 703  0.2+  1.7+  

060207 691  0.3-  0.5+    060321 367  0.7+  0.6-    060504 703 (1.1+  2.3+) 

060207 691  0.4-  0.5+    060321 367  0.5+  0.1+    060504 D88  0.8-  0.2-  

060207 703 (2.2-  0.7+)   060321 118  0.1-  0.1-    060504 D88  0.2-  0.5+  

060207 703  1.7-  0.6+    060321 118  0.4-  0.0     060504 D88  0.2+  0.7+  

060207 703 (2.4-  0.8+)   060321 118  0.4-  0.0     060513 213  0.2-  0.8-  

060207 703 (2.5-  0.6+)   060321 A11  0.5-  0.4+    060513 213  0.1-  1.1-  

060207 213  0.9+  0.1+    060321 118  0.3-  0.1-    060519 J64 (2.7+  0.1-) 

060207 213  0.7+  0.3-    060321 A11  0.2+  0.7+    060519 J64  1.4+  0.3+  

060207 213  0.7+  0.7+    060321 A11  0.5-  0.4+    060519 J64  0.2+  0.4+  

060208 I77  0.0   0.3-    060322 A32  0.2-  0.1-    060520 D88  0.1+  0.1+  

060208 I77  0.1-  0.2-    060322 A32  0.3-  0.1+    060520 D88  1.0-  1.0+  

060208 I77  0.1-  0.1-    060322 A32  0.3-  0.1-    060523 703 (3.6+  3.3-) 

060208 415  0.3+  0.3-    060322 A32  0.1-  0.1-    060523 703 (1.8+  3.1-) 

060208 415  0.3+  0.2-    060323 048  0.0   0.1+    060523 703 (2.1+  4.1-) 

060210 349  0.0   0.1+    060323 048  0.2+  0.7+    060523 703 (2.3+  4.5-) 

060210 349  0.0   0.1-    060323 048  0.4-  0.1-    060528 J97  0.9-  0.4+  

060210 349  0.0   0.0     060323 048  0.8-  0.1+    060530 703 (1.1+  4.2-) 

060210 203  0.1+  0.1-    060323 048  0.7-  0.5+    060530 703 (0.8+  3.1-) 

060210 203  0.0   0.2-    060324 703 (0.9+  3.4-)   060530 703 (1.2+  2.7-) 

060212 204  0.4+  0.1+    060324 703 (0.9+  3.7-)   060530 703 (1.5+  3.2-) 

060212 204  0.1-  0.3+    060324 703 (1.0+  2.6-)   060531 561  1.1-  0.1+  

060212 204  0.1-  0.3+    060324 703 (1.2+  3.3-)   060531 561  1.7-  0.0   

060212 349  0.1+  0.0     060324 H06  0.1+  0.4-    060531 561  0.3-  0.7+  

060212 349  0.2+  0.1+    060324 H06  0.0   0.4-    060601 704  0.2+  0.2-  

060212 349  0.2+  0.1+    060324 A01  0.7+  0.6-    060601 704  1.9+  0.8-  

060217 I77  0.3-  0.2+    060324 A01  0.1+  0.4-    060601 704  0.8+  0.7+  

060217 I77  0.2-  0.1+    060324 A01  0.1+  0.2-    060601 704  0.8+  0.5+  

060217 I77  0.1+  0.1+    060324 442  0.3-  0.3-    060601 704  1.0+  1.5+  

060217 I77  0.1+  0.1-    060324 442  0.6-  0.1+    060601 704  1.3+  0.7+  

060217 J76  0.4+  0.5+    060324 442  0.3-  0.2+    060601 704  0.3-  0.3-  

060217 J76  0.7+  0.5+    060324 232 (2.1+  1.2+)   060601 704  1.6+  0.1-  

060217 J76  0.3+  0.5+    060324 232  0.1+  0.2-    060601 704  1.3+  0.7+  

060218 J76  0.5+  0.5+    060324 232  0.8-  1.0-                            

060218 J76  0.6+  0.7+    060324 213  0.0   0.5+                            



NAKANO

         **** Don't distribute anyone except personal use only ****

                (C) Copyright 2006 OAA/ComputingSection

write mail from CFAD0::NAKANO on 2006-06-20 02:59:54(JST).



    P/2005 XA54 (LONEOS-Hill)

Epoch 2006 Mar. 6.0 TT = JDT 2453800.5  

T 2006 Mar. 7.90518 TT                                  Nakano

q   1.7776655            (2000.0)            P               Q

n   0.06489382     Peri.   15.35896     -0.93064613     -0.32413298

a   6.1329180      Node   144.24832     +0.29759184     -0.94046610

e   0.7101436      Incl.   16.89599     +0.21292457     -0.10228064

P  15.19 (+/- 0.04 day)

From 229 observations 2005 Dec. 4-2006 Feb. 24, mean residual 0".49.



NAKANO

         **** Don't distribute anyone except personal use only ****

                (C) Copyright 2006 OAA/ComputingSection

write mail from CFAD0::NAKANO on 2006-03-01 01:58:59(JST).

 





    P/2005 XA54 (LONEOS-Hill)

T 2006 Mar. 7.89984 TT                                  Nakano

q   1.7776913            (2000.0)            P               Q

n   0.06489079     Peri.   15.35580     -0.93062882     -0.32418161

a   6.1331089      Node   144.24844     +0.29764169     -0.94045105

e   0.7101484      Incl.   16.89625     +0.21293058     -0.10226486

P  15.19 (+/- 0.10 day)

From 142 observations 2005 Dec. 4-2006 Feb. 4.



NAKANO

         **** Don't distribute anyone except personal use only ****

                (C) Copyright 2006 OAA/ComputingSection

write mail from CFAD0::NAKANO on 2006-02-06 06:49:21(JST).

 

◎P/2005 XA54の軌道と予報位置です    [From JSGA Web News No.42]



JSGA Web News No. 42                                               2006 Jan. 8



特異小惑星 2005 XA54が彗星と判明

  カテリナ・スカイサーベイの 68-cmシュミットで2006年1月6日にろくぶんぎ座を撮

影したCCDフレーム上にヒル(R. Hill)は,17等級の新彗星を発見した.発見時,彗星

は,よく発達した約20"の尾が西北西に伸びていたという.

  小惑星センターのスパール(T. Spahr, CFA)は,この彗星は,LONEOSサーベイから

2005年12月4日に1夜の観測でその発見が報告された18等級の小惑星と同じ天体である

ことを見つけた.この1夜の小惑星は,12月6日にカテリナ・スカイサーベイとLINEAR

サーベイから報告された別の1夜の小惑星と組み合わされ,すでに仮符号 2005 XA54で

登録されていた.この彗星は,2005年12月25日に撮影されたカテリナ・スカイサーベイ

のフレーム上,そして,2006年1月2日のLINEARサーベイのフレーム上にも確認された

(IAUC 8656).

  OAA 小惑星課では,2005年12月4日から2006年1月7日までに行なわれた41個の観測

から次の軌道を決定した.軌道改良に使用された最終観測は,上尾の門田健一氏(K.

Kadota, Ageo)による.氏の CCD全光度は17.1等であった.氏の観測は,我が国での初

観測.



   T = 2006 Mar. 7.9697 TT

   ω =  15.4042                   e =   0.709194

   Ω = 144.2388    (2000.0)       a =   6.110319 AU

   i =  16.8946                   n゚=   0.06525416

   q =   1.776918 AU              P =  15.1 年



  上の軌道からの位置予報は次のとおり.しばらくの間,彗星は,衝位置を動き,観測

条件は良い.



2006/        α  (2000) δ      △      r    Daily Motion  Elong. Phase    m1 

  0h TT     h  m       。  ,        AU      AU     ,     。      。      。      等

Jan.  5   09 55.70  +03 33.0    1.079   1.898   13.9/ 53    134.0   21.9   16.9

     15   10 03.16  +04 56.0    0.981   1.864   15.2/ 33    143.0   18.5   16.7

     25   10 08.64  +07 04.0    0.902   1.834   18.0/ 17    152.9   14.2   16.4

Feb.  4   10 12.23  +09 55.9    0.844   1.810   20.7/  9    163.5    8.9   16.2

     14   10 14.41  +13 20.5    0.808   1.793   21.8/  6    173.9    3.4   16.1

     24   10 15.98  +16 56.9    0.796   1.782   20.5/  8    172.1    4.4   16.0

Mar.  6   10 17.97  +20 19.9    0.808   1.777   17.4/ 16    161.5   10.2   16.0

     16   10 21.45  +23 06.8    0.842   1.779   14.2/ 33    151.1   15.7   16.1

     26   10 27.10  +25 05.4    0.895   1.788   12.8/ 58    141.7   20.2   16.3

Apr.  5   10 35.20  +26 12.2    0.963   1.803   14.2/ 82    133.3   23.8   16.5

     15   10 45.65  +26 30.8    1.045   1.824   16.8/ 97    125.8   26.5   16.7

